{"data":{"norad_id":54850,"intl_designator":"2022-177AG","name":"STARLINK-5087","alt_names":[],"object_type":"PAYLOAD","status":"ACTIVE","operator":null,"country":"US","launch_date":"2022-12-28","launch_site_code":"AFETR","launch_vehicle":null,"mission":null,"orbit_class":"UNKNOWN","rcs_meters":null,"size_class":null,"mass_kg":null,"dimensions":null,"purposes":["comms"],"wikipedia_slug":null,"has_3d_model":false,"image_url":null,"decayed_at":null,"tle_current":{"epoch":"2026-09-20T06:45:53.955936Z","epoch_age_seconds":112190,"freshness":"FRESH","line1":"1 54850U 22177AG  26263.28187449  .00001152  00000+0  51382-4 0  9994","line2":"2 54850  43.0040 102.4026 0001479 266.9982  93.0700 15.27574708206859","mean_motion":15.27574708,"eccentricity":0.0001479,"inclination_deg":43.004,"raan_deg":102.4026,"arg_perigee_deg":266.9982,"mean_anomaly_deg":93.07,"bstar":5.1382e-5,"rev_number":20685,"period_min":94.267075283365,"perigee_km":482.05017046993,"apogee_km":484.07971400444,"semimajor_km":6861.2019422372,"source":"CELESTRAK","updated_at":"2026-09-21T09:00:33.138061Z"}}}